Wind_Speed
27 26 27 27 28 29 27 25 25 25 24 22 21 20 19 18 19 20 19 21 23 22 22 23 22 22 23 23 22 21 20 20 20 19 19 18 17 17 18 18 18 18 18 17 17 16 15 15 13 12 9 6 7 9 9 10 10 11 12 12 12 12 11 7 5 6 6 7 7 7 7 5 6 10 12 9 8 7 8 10 11 11 12 9 5
26 27 28 28 29 30 28 27 27 28 27 25 23 21 20 19 19 20 19 22 24 22 23 24 23 23 22 22 21 20 20 20 19 18 18 18 18 18 18 19 19 18 17 16 16 15 14 14 14 12 10 8 9 10 10 11 12 12 13 14 14 13 10 6 5 6 6 6 6 6 6 5 5 11 13 9 9 10 8 9 11 10 11 10 8
27 27 28 28 30 30 30 29 28 29 27 25 24 22 21 20 19 20 20 22 23 23 24 24 22 21 20 20 19 19 19 19 18 17 17 18 18 17 17 18 19 19 18 16 16 16 14 13 13 14 13 12 12 13 13 13 13 13 14 14 13 13 10 6 5 5 5 5 6 5 5 4 4 11 13 9 11 13 9 11 12 11 10 11 10
29 28 28 29 29 31 31 30 29 29 27 25 25 24 23 21 20 21 21 21 22 23 23 22 21 20 19 19 19 18 18 18 18 18 18 19 18 18 17 16 17 17 17 17 17 16 15 14 14 15 17 16 16 17 17 17 16 15 15 14 13 12 9 7 5 4 4 4 5 6 5 5 5 11 12 8 12 13 11 13 13 11 11 11 11
31 30 30 30 30 32 32 31 30 30 29 27 26 25 24 22 21 21 21 21 21 21 22 22 21 20 20 20 20 20 18 19 20 20 20 20 19 19 17 16 15 15 15 15 15 15 13 13 14 16 18 18 20 21 21 20 19 17 15 14 12 10 8 7 6 4 4 4 5 5 5 5 7 12 12 9 12 13 12 14 12 11 12 10 10
31 31 31 31 31 32 32 32 32 31 30 28 26 26 24 22 21 21 21 21 21 20 21 22 21 21 21 21 22 22 21 21 22 21 21 21 20 19 18 17 16 15 14 14 14 14 13 13 14 16 18 19 20 22 23 23 21 18 16 13 12 10 9 8 6 4 4 3 4 5 5 6 8 11 10 9 11 11 11 13 12 13 12 9 9
30 30 31 31 31 32 32 33 33 33 31 28 27 27 25 23 22 21 22 21 20 20 21 22 23 22 22 22 23 23 23 22 22 21 21 21 21 21 20 19 18 16 16 16 16 15 14 13 13 14 16 18 20 22 23 23 21 19 16 13 12 11 10 8 6 5 5 4 5 6 7 8 9 9 9 10 11 11 11 11 12 14 12 8 7
29 30 31 31 31 32 32 32 33 33 30 28 28 28 27 25 24 23 23 22 20 20 21 23 24 23 22 23 23 23 23 22 21 21 21 21 22 23 22 20 19 17 17 17 16 16 16 14 13 14 16 17 19 20 21 21 20 18 15 13 12 12 11 9 7 6 6 6 6 7 8 8 9 8 7 7 9 12 11 11 12 13 11 7 6
29 30 31 31 31 31 31 32 34 33 29 26 27 29 28 25 24 25 25 24 21 20 21 22 24 25 23 23 24 24 23 22 21 21 21 22 23 23 23 22 21 19 18 17 17 17 17 15 14 15 16 16 17 18 18 18 17 16 14 12 12 12 11 10 8 7 7 7 7 8 9 9 9 8 7 6 7 10 10 10 11 11 9 6 6
27 28 29 29 29 29 31 32 33 32 28 25 27 29 28 26 25 27 28 26 23 22 22 22 24 25 25 25 25 24 24 23 22 22 22 23 23 23 23 22 22 21 19 18 18 18 18 16 15 14 15 15 16 16 16 16 14 12 11 11 12 13 12 11 9 8 7 8 8 9 9 9 10 9 8 7 7 8 9 9 9 9 8 6 6
26 26 28 28 28 29 31 31 31 31 28 26 27 28 28 27 27 28 29 28 25 24 24 24 24 26 26 26 25 25 25 25 24 24 24 23 23 23 23 22 22 23 22 20 19 18 18 17 15 13 13 14 15 15 15 15 14 11 10 11 13 13 13 13 10 9 8 9 9 9 9 9 10 10 9 9 9 8 9 9 7 6 6 6 6
24 25 26 27 29 30 30 30 30 30 29 27 27 28 28 28 28 29 30 30 28 26 26 26 26 27 26 26 25 25 25 26 25 25 24 24 23 22 23 23 24 25 25 23 20 19 19 17 16 14 12 12 13 14 14 14 13 11 10 11 13 14 14 14 12 10 10 11 11 11 11 10 10 9 10 11 11 9 10 9 7 5 4 4 4
22 23 25 26 28 29 28 28 29 29 30 28 27 28 29 29 29 29 30 30 29 27 28 28 28 28 27 26 25 24 25 25 25 25 24 24 24 23 22 23 24 25 27 26 22 19 19 18 17 15 13 11 11 12 12 13 12 12 11 11 12 13 14 14 13 12 12 12 11 11 11 11 10 9 9 11 12 11 11 10 8 7 5 3 2
21 22 23 25 26 28 27 27 27 29 29 27 26 28 29 30 31 30 29 29 28 28 29 29 29 28 27 26 25 24 24 25 26 26 25 25 25 25 23 21 22 24 26 27 24 20 19 19 18 17 15 12 12 12 12 12 13 13 12 12 12 11 11 12 12 12 12 11 11 11 11 11 10 10 10 11 11 12 12 11 10 9 8 5 3
18 20 22 23 25 26 27 27 27 28 27 25 25 28 29 30 32 32 30 29 29 29 29 30 30 29 28 27 26 24 24 25 26 26 26 26 27 27 25 23 22 23 24 25 25 22 20 20 20 19 17 15 14 13 13 13 14 14 14 13 13 12 11 12 11 11 11 11 11 11 12 12 12 12 13 12 12 12 12 13 13 11 10 8 6
15 17 20 21 23 25 26 27 27 27 27 24 23 26 29 30 32 32 31 30 30 30 30 30 30 29 29 28 27 25 24 24 25 26 26 26 27 27 26 24 23 22 22 22 24 23 21 20 20 20 18 17 16 15 15 15 15 16 15 14 14 13 12 12 12 11 11 11 12 13 13 14 14 15 15 15 14 13 12 12 13 13 12 10 9
11 13 16 19 21 23 25 26 27 26 26 25 23 23 24 28 32 32 31 31 31 31 31 31 31 31 30 29 28 27 25 25 25 26 26 26 27 26 25 24 23 22 21 20 21 22 21 20 20 20 19 19 18 17 16 16 17 17 16 16 15 14 13 13 13 13 13 13 13 13 14 15 15 15 16 16 16 15 13 12 12 13 13 11 10
8 11 13 16 19 21 23 25 25 25 25 25 24 22 20 24 29 30 31 31 31 32 32 32 32 32 32 31 29 28 27 25 25 25 26 27 27 27 25 24 23 23 22 21 21 22 22 22 22 21 21 20 19 18 18 17 18 18 17 17 17 16 15 14 14 14 14 14 14 14 14 14 13 14 15 15 15 15 13 12 12 13 14 13 11
10 10 12 14 16 19 21 23 24 24 24 24 25 25 22 21 25 28 29 30 31 32 33 33 34 33 32 31 30 29 28 27 25 25 26 28 28 28 27 26 25 24 23 23 23 23 23 23 23 22 21 20 19 19 19 19 19 18 18 17 16 16 15 14 14 14 15 15 15 15 15 14 13 13 14 14 14 14 14 13 13 14 15 15 13
12 14 14 14 15 17 19 21 22 22 22 23 25 27 26 24 25 27 28 29 30 33 35 35 35 35 34 32 30 29 29 28 27 26 26 28 28 28 28 28 27 26 25 25 25 25 24 23 22 21 20 19 19 19 20 20 19 18 17 16 15 15 15 14 13 14 14 15 15 15 16 14 13 13 13 14 14 14 15 15 15 15 15 15 14
11 13 16 16 16 16 17 19 20 21 22 23 25 27 29 29 29 29 28 27 28 32 35 35 34 35 35 33 30 29 29 28 27 27 27 27 28 29 29 29 29 29 28 27 27 26 24 23 22 21 20 20 20 20 21 20 19 18 17 16 16 16 15 14 13 14 14 14 15 15 15 14 13 13 14 14 15 15 15 16 16 16 16 15 15
14 12 12 15 16 16 17 18 19 21 22 23 24 26 28 30 31 30 29 27 28 31 33 31 30 32 35 35 32 29 27 28 28 28 28 28 27 28 28 29 29 29 28 28 27 26 25 24 23 22 21 20 21 21 20 20 19 18 17 17 17 17 17 16 14 13 13 14 14 15 15 14 14 14 15 14 15 15 16 16 16 17 17 16 16
17 14 11 9 12 14 16 17 19 20 21 22 23 24 26 28 30 31 30 28 28 31 32 28 27 30 32 33 33 31 28 28 27 27 28 29 28 27 27 27 27 27 27 27 26 25 24 23 23 22 22 21 21 21 20 20 19 19 18 18 17 17 17 17 16 14 13 14 15 16 15 14 15 16 15 14 14 15 16 17 17 17 17 17 17
19 17 14 9 7 10 13 15 17 19 21 22 22 23 25 27 30 32 32 29 28 29 30 26 26 30 30 30 33 34 32 30 28 27 27 28 28 27 26 25 25 25 25 25 25 23 22 22 22 22 22 21 21 21 20 20 19 19 19 19 18 18 18 18 16 14 15 15 15 16 14 14 16 16 15 14 14 14 15 16 17 17 17 17 17
22 19 16 13 9 8 10 13 16 18 20 22 23 24 25 26 28 30 32 31 29 29 30 28 28 32 32 32 31 31 31 30 29 29 29 28 29 29 27 25 24 23 24 24 25 23 22 21 21 21 21 21 21 21 20 20 20 20 20 20 19 19 20 20 17 15 15 16 15 15 14 14 15 16 15 14 14 14 14 15 16 17 17 18 18
25 21 18 16 14 11 10 11 14 17 19 20 22 23 24 25 26 27 28 28 28 30 31 32 33 33 32 32 29 26 26 26 27 30 32 32 31 29 28 27 25 24 24 25 25 23 20 20 21 21 21 21 20 20 20 20 20 20 20 19 19 19 20 20 18 15 15 16 16 16 15 15 15 15 14 14 14 14 14 15 15 16 17 18 18
27 24 20 18 16 15 14 11 12 14 16 18 19 21 22 24 24 24 24 25 25 28 31 33 33 32 30 29 27 24 25 26 28 30 32 31 30 29 28 26 25 24 24 25 25 22 20 20 21 21 21 20 20 19 19 19 19 19 19 19 19 20 20 19 18 17 16 16 16 16 16 15 14 14 14 14 14 15 15 15 15 15 16 17 18
30 28 25 22 20 18 17 15 14 13 13 14 16 18 19 21 22 22 23 25 24 26 29 30 30 29 27 24 22 23 24 25 27 27 27 29 29 29 28 27 26 25 24 22 22 22 21 21 21 21 21 20 20 19 19 19 19 19 19 19 20 19 18 17 17 18 17 16 15 15 15 14 14 15 15 15 14 15 14 14 14 14 15 16 16
32 31 28 25 22 19 18 18 16 15 14 13 13 15 16 17 19 20 22 23 23 24 26 27 27 26 23 20 20 21 21 22 23 24 26 29 29 27 27 28 26 24 22 20 19 19 20 21 22 22 21 21 20 19 19 19 19 20 20 19 19 18 16 16 16 16 16 15 15 15 15 15 15 15 15 15 14 13 13 13 13 15 15 16 16
30 31 30 28 25 20 17 16 15 15 15 15 14 14 13 12 14 18 19 19 20 23 24 24 24 23 21 18 16 16 17 18 17 15 17 21 20 20 24 25 22 21 20 20 19 18 19 20 22 22 22 21 20 19 19 19 18 18 18 18 18 17 15 15 15 16 16 15 14 15 16 15 15 15 14 14 14 13 13 13 14 15 15 16 16
29 31 31 30 28 24 19 16 14 14 14 14 15 15 14 11 11 16 17 16 18 21 21 20 20 21 20 16 13 14 14 14 12 9 9 9 9 11 16 17 17 19 20 20 19 18 18 19 21 22 21 20 20 19 18 17 16 17 17 16 16 15 15 15 15 15 15 14 14 15 15 15 14 14 15 14 14 13 12 12 13 14 14 15 15
28 30 31 32 32 29 24 19 16 14 12 12 14 15 15 11 10 12 14 14 15 18 19 16 14 15 15 12 11 13 13 11 10 9 9 8 7 9 12 14 16 18 19 20 19 18 18 19 20 20 19 19 19 18 17 16 15 15 15 14 13 13 14 14 13 14 14 13 13 14 14 14 14 14 14 14 14 13 12 12 12 13 13 13 14
26 29 31 33 34 33 29 24 19 15 12 11 12 14 14 12 10 11 12 13 13 14 14 11 10 11 10 9 10 12 12 11 10 9 10 9 9 10 12 13 14 16 17 18 18 17 18 18 18 18 18 18 18 18 17 17 15 14 13 12 12 12 13 13 13 13 13 13 13 13 13 13 13 14 14 13 13 12 12 12 12 13 13 13 13
25 27 30 32 34 34 32 28 22 17 13 11 11 11 12 11 11 12 13 13 12 11 10 8 9 9 8 8 9 9 9 9 8 8 9 8 8 10 11 12 13 14 15 16 16 16 17 16 16 16 17 18 17 17 17 16 14 12 12 12 12 12 12 11 12 13 13 13 13 13 13 13 13 15 15 14 13 12 12 12 13 13 13 12 12
26 27 28 30 32 34 34 32 27 20 15 12 10 9 10 10 11 13 14 13 12 10 9 8 9 9 8 7 7 7 7 8 8 8 8 7 7 9 10 10 11 12 12 13 14 15 15 15 15 15 16 16 15 14 14 13 12 11 12 13 13 12 11 11 12 13 13 14 14 14 15 15 16 17 17 16 15 14 14 14 14 13 12 11 11
25 25 26 27 29 31 32 33 30 25 18 13 9 8 8 10 12 13 13 12 12 11 10 10 11 11 9 7 6 6 6 7 8 7 5 4 5 6 7 8 9 9 10 11 13 13 13 12 12 13 13 12 11 11 10 10 9 10 10 11 11 10 10 11 12 13 14 14 15 15 16 17 17 17 17 17 17 16 16 15 13 13 12 11 10
23 22 23 24 26 28 30 30 30 26 20 14 9 5 6 8 11 13 12 11 12 13 13 12 12 11 10 8 7 7 7 7 6 4 1 2 3 4 6 7 8 9 10 11 12 11 10 9 9 9 8 6 6 6 7 7 8 8 9 9 9 9 10 12 13 14 15 15 16 17 18 18 18 17 17 17 17 16 15 15 14 14 14 14 14
22 22 23 24 24 26 28 29 29 25 19 14 9 5 5 7 9 10 10 11 13 14 14 13 11 10 9 7 6 6 6 6 5 3 2 2 3 3 5 7 8 8 7 8 8 7 5 5 4 4 3 2 3 4 6 7 8 9 9 9 11 12 13 15 16 17 18 19 20 21 21 19 18 18 17 16 15 14 14 16 17 18 19 18 18
21 21 23 25 25 25 26 28 29 26 20 15 11 7 5 5 6 5 7 11 12 13 13 12 10 9 8 7 5 4 5 5 5 3 2 2 3 4 5 6 5 4 3 4 5 5 3 2 1 0 2 3 5 6 6 7 9 10 11 12 14 15 17 18 19 20 21 22 22 21 20 17 16 16 14 13 14 15 16 17 18 19 20 21 20
21 20 22 24 24 25 26 27 29 28 23 18 12 7 3 2 3 4 6 9 10 10 10 10 10 8 7 6 5 4 4 5 5 4 3 4 4 3 4 4 3 1 2 3 4 3 1 2 3 4 5 6 8 9 8 8 10 12 14 15 17 18 20 22 22 22 21 20 19 18 17 16 15 13 12 13 15 17 18 18 19 19 21 21 20
21 20 21 22 22 23 24 25 26 26 24 21 15 8 3 1 1 3 6 7 7 8 9 10 9 8 7 7 6 5 5 4 5 5 5 5 4 3 2 3 3 3 3 2 1 1 3 5 7 8 9 9 10 9 9 11 13 15 16 18 20 21 22 22 21 19 17 15 14 14 14 14 14 13 13 15 16 17 17 18 19 19 20 20 20
19 19 20 21 21 22 23 24 24 24 22 18 16 12 8 4 2 3 6 8 7 8 8 8 8 7 7 7 6 5 5 4 4 5 5 4 3 3 3 3 3 3 3 1 3 4 6 7 9 11 10 10 10 10 11 13 15 16 18 20 20 20 19 17 15 13 10 9 9 10 10 11 12 12 13 13 14 14 15 16 16 16 17 17 17
19 18 19 20 21 21 21 22 22 21 19 15 13 13 10 9 6 5 6 8 7 7 7 7 6 6 6 6 5 5 4 3 3 3 4 3 3 3 3 3 3 2 3 4 4 5 7 9 11 11 10 10 10 10 12 13 14 16 17 17 16 14 12 10 9 7 5 5 6 6 7 8 9 10 11 11 11 11 11 11 11 12 12 12 12
20 18 17 19 21 20 19 20 19 18 17 15 14 12 9 9 10 8 8 8 6 5 5 5 6 7 6 6 6 5 4 2 1 2 2 2 3 3 3 3 3 4 5 5 6 7 9 10 10 10 10 10 11 11 12 14 15 15 14 12 10 9 7 6 5 4 3 3 4 5 6 7 8 8 8 7 7 6 7 7 8 9 9 9 9
20 19 17 18 20 20 18 17 17 16 15 15 15 13 9 7 9 9 9 8 6 4 4 5 6 7 7 7 6 4 2 1 1 1 1 1 2 2 3 3 4 5 6 6 8 10 11 11 11 10 10 10 11 12 13 15 15 14 13 10 8 6 5 5 4 3 3 3 4 5 6 6 6 6 5 5 4 5 5 6 6 6 6 6 6
20 19 18 17 19 20 17 15 15 16 15 14 14 13 11 9 7 7 7 6 5 3 4 5 6 7 7 7 5 3 2 3 3 2 1 1 1 2 3 4 5 6 7 8 9 11 12 12 12 11 10 10 11 12 13 14 15 14 13 10 8 6 5 5 5 5 5 5 5 6 6 5 5 5 5 5 4 4 4 3 2 2 3 3 4
20 20 18 18 19 19 17 14 14 15 15 14 12 11 12 13 10 5 5 6 6 4 4 5 6 8 8 8 6 4 4 5 4 3 2 2 2 2 3 5 6 7 8 9 11 12 13 13 13 12 11 11 11 11 12 12 13 12 11 10 8 6 5 6 6 6 6 6 6 6 6 6 6 6 6 5 4 4 2 1 0 1 1 2 3
20 20 19 18 18 18 16 14 14 14 15 15 13 10 11 13 13 7 4 6 6 4 4 5 7 8 9 8 6 5 6 5 4 4 4 4 4 5 5 5 6 8 9 11 12 13 14 14 13 11 10 11 10 10 9 9 8 8 8 9 8 6 5 6 6 7 7 8 7 7 7 7 7 7 6 5 4 3 2 1 1 0 1 1 1
20 20 19 18 17 17 15 14 14 14 15 17 16 12 11 12 13 11 8 6 6 4 3 4 5 7 8 8 6 5 6 5 4 4 4 5 5 6 6 6 7 8 10 11 12 12 13 14 13 10 10 10 9 6 4 5 4 4 4 5 4 4 5 5 6 8 8 9 8 8 8 9 9 8 7 5 4 4 3 2 2 2 2 1 1
21 21 20 18 17 17 16 15 15 14 15 17 17 14 12 11 11 11 10 10 10 8 7 4 4 6 7 7 5 3 4 5 4 3 4 5 5 5 6 6 7 8 8 8 9 9 10 11 11 9 8 8 5 4 4 4 2 1 3 3 2 3 5 6 7 9 9 10 10 9 9 10 9 8 7 5 5 5 4 3 3 3 3 2 1
23 22 21 19 18 17 17 16 15 15 14 15 16 15 13 10 10 10 10 10 11 12 11 7 3 4 5 5 5 3 2 2 3 4 3 4 5 5 5 5 5 5 6 6 7 7 8 9 8 7 6 5 5 6 5 3 2 1 2 3 3 4 5 6 8 10 11 11 11 11 11 11 10 9 7 6 6 6 5 4 4 3 3 3 3
Wind_Direction
224 224 223 224 224 225 230 233 230 230 231 229 227 227 229 230 223 216 211 206 205 205 201 201 202 202 204 206 209 208 208 210 210 210 211 210 209 208 207 205 204 206 207 210 211 212 217 219 224 233 241 256 260 255 261 268 277 287 297 303 303 304 311 316 316 318 336 350 356 8 15 29 44 28 17 10 15 14 8 9 12 15 16 14 10
221 223 224 224 225 226 230 232 230 229 229 227 226 225 227 231 227 220 213 206 205 206 204 204 205 207 209 210 210 209 209 211 211 212 213 212 211 211 209 208 209 210 211 214 216 218 223 225 228 237 242 246 250 255 257 262 273 283 292 298 299 299 298 297 302 318 338 349 356 11 23 42 44 21 19 25 22 13 9 11 10 13 17 17 13
218 222 223 225 225 226 228 230 231 232 231 230 226 223 225 231 230 221 215 210 208 208 208 208 209 211 213 214 213 211 211 212 214 215 215 213 212 211 211 211 213 216 217 218 219 220 226 232 234 240 243 243 246 253 256 260 267 277 289 295 294 292 288 278 280 314 339 348 354 359 11 27 18 9 17 28 19 15 15 12 11 13 14 16 18
216 219 221 223 224 225 227 229 231 231 231 231 226 223 225 231 233 223 216 214 211 210 211 212 212 212 212 214 215 215 215 214 213 215 213 211 209 208 209 210 211 215 218 221 223 225 232 238 240 241 244 245 248 253 256 260 266 275 287 292 288 281 275 270 276 310 330 333 347 350 354 6 358 357 6 17 13 12 14 11 9 10 9 11 16
218 218 220 221 223 225 227 229 231 230 230 230 227 225 227 232 234 227 218 213 211 210 212 213 212 211 210 210 211 213 215 215 214 214 211 207 204 205 205 203 204 207 212 218 222 226 230 236 240 240 241 243 248 254 258 261 266 273 283 287 278 265 260 271 285 310 318 308 333 346 345 348 345 347 354 3 4 4 7 10 11 7 3 4 10
222 222 222 223 225 226 227 228 229 231 232 231 229 227 228 231 232 228 220 213 211 212 212 213 213 212 211 210 211 212 213 214 216 215 212 209 206 204 203 201 204 206 209 214 218 222 229 234 240 242 241 242 246 253 258 261 266 271 278 276 262 251 255 270 283 302 317 313 324 334 333 329 330 339 345 345 350 358 5 8 10 6 359 357 4
221 223 224 224 225 226 227 228 230 232 232 231 229 227 228 228 227 226 221 214 213 213 214 215 216 215 215 216 217 218 217 217 218 217 216 215 213 210 208 207 209 211 212 217 220 225 231 236 242 245 245 244 245 250 256 260 265 268 271 266 253 248 254 264 273 289 310 318 317 319 322 321 320 326 333 336 341 347 358 7 7 4 360 354 2
219 220 223 226 227 228 229 230 230 229 227 227 228 230 230 226 224 224 221 216 214 216 218 219 220 219 218 220 222 223 223 222 221 220 219 219 220 220 217 216 215 214 215 220 224 227 232 237 245 249 248 245 245 249 254 259 263 264 263 256 249 249 253 258 265 283 306 312 309 310 314 317 314 311 314 327 335 335 347 5 5 7 9 355 360
223 224 225 227 228 229 231 230 230 230 231 232 233 234 234 228 224 224 222 219 215 218 222 223 224 224 222 223 224 225 225 225 223 224 223 223 225 225 224 222 220 218 219 224 229 231 233 237 246 252 250 246 245 247 251 255 257 259 256 249 246 248 251 256 264 280 299 303 305 309 310 310 307 304 304 313 326 326 336 356 2 13 20 2 359
227 228 228 229 230 230 230 230 231 234 236 238 236 235 234 229 225 224 223 220 217 219 224 227 227 226 226 226 227 226 226 225 223 223 225 227 228 229 228 227 224 222 222 229 236 235 233 236 244 250 248 244 244 246 249 249 248 251 253 249 246 247 251 258 265 275 287 294 302 307 306 304 301 296 292 295 308 315 323 341 354 11 24 14 358
228 229 229 229 230 229 229 231 234 235 233 233 234 234 233 228 224 223 222 220 217 219 223 227 228 228 228 228 229 229 227 225 223 222 224 228 231 233 234 234 233 230 229 233 237 235 232 236 242 247 245 241 242 245 245 242 240 246 256 258 252 249 253 258 262 267 275 286 296 299 299 300 299 292 283 281 290 299 309 324 337 353 19 21 356
229 229 228 227 227 227 229 232 234 234 231 230 230 230 230 227 223 222 222 219 218 219 222 225 228 228 229 229 231 232 230 227 226 225 225 228 232 236 237 239 239 238 235 234 234 232 231 235 239 245 247 245 245 245 242 239 240 246 257 266 262 255 254 258 262 267 274 282 288 290 291 295 296 292 284 279 280 285 295 308 318 323 350 16 0
231 231 230 227 226 227 230 232 234 235 232 228 227 225 226 225 223 220 219 218 217 219 220 223 226 228 229 230 232 233 232 231 232 233 231 231 231 232 234 236 238 238 236 234 232 230 233 236 240 245 251 254 253 250 245 243 246 251 257 267 269 262 258 261 266 272 276 281 283 283 285 287 285 285 285 282 280 279 282 293 303 307 315 337 354
231 233 233 231 230 230 233 235 236 236 233 231 229 225 223 222 221 219 219 219 219 220 221 222 225 228 230 232 233 233 233 233 234 236 236 234 230 229 230 233 236 238 238 235 232 233 238 242 244 247 251 255 258 259 257 254 255 257 259 264 267 264 260 261 265 269 274 278 279 279 279 277 273 273 277 279 279 277 276 280 287 294 299 302 303
232 235 236 236 236 235 235 237 238 237 235 233 230 226 224 222 220 220 220 221 222 223 224 225 227 229 231 232 233 234 235 235 236 237 237 234 229 228 231 233 235 238 240 239 236 238 244 246 247 248 250 255 261 265 266 264 262 262 262 263 263 262 258 258 261 267 273 278 278 275 272 270 268 267 268 270 273 274 275 275 277 283 290 293 294
234 237 240 241 241 238 237 238 239 239 236 233 228 225 226 225 223 222 223 225 227 227 228 229 231 232 232 233 234 234 235 237 238 237 237 234 229 228 231 235 237 239 241 241 238 239 245 247 247 249 252 258 264 267 268 267 266 264 264 265 264 263 261 259 260 267 273 278 278 274 271 270 269 267 266 267 268 271 273 273 271 274 282 290 296
246 244 246 245 245 242 239 238 240 241 237 233 231 230 232 231 227 226 227 229 232 233 234 234 235 235 234 234 234 235 237 238 239 237 236 235 232 231 233 236 239 241 241 241 240 242 248 250 251 255 259 263 265 267 268 267 265 265 267 270 269 268 265 261 260 265 271 276 277 275 273 271 270 268 265 265 266 267 268 270 269 270 274 282 293
261 255 253 251 250 247 242 240 242 244 243 238 234 232 236 237 233 232 232 233 237 239 240 240 240 238 237 235 236 238 239 241 243 241 239 238 237 236 237 239 241 241 241 243 244 248 253 257 260 263 265 265 266 268 268 268 266 266 269 273 272 269 265 262 264 269 273 275 275 274 273 272 269 266 263 261 262 262 262 265 267 267 270 274 283
275 265 260 256 255 251 247 244 243 244 245 242 237 233 235 238 237 236 235 237 240 243 244 245 244 241 238 238 239 241 243 246 247 245 242 241 241 241 242 243 244 244 243 245 249 253 258 262 264 266 266 265 266 267 269 270 268 267 269 270 270 267 264 264 269 276 277 275 274 273 273 273 270 266 263 260 259 259 258 259 262 264 268 271 274
288 277 270 265 261 257 254 250 247 246 246 244 240 236 237 239 238 236 237 237 239 242 245 247 246 243 239 239 242 243 245 249 250 249 246 244 245 245 246 247 248 249 249 250 253 257 260 263 264 264 265 264 265 267 269 270 267 265 265 266 267 267 265 265 270 275 277 276 276 275 274 275 273 270 268 266 264 261 257 256 257 261 265 268 268
315 290 277 270 266 261 258 255 251 248 245 244 242 240 241 242 240 239 240 240 239 240 244 248 248 245 241 240 243 246 247 250 253 252 250 249 248 248 249 250 252 252 252 252 255 258 259 261 261 262 263 264 264 266 267 267 265 262 262 265 267 267 265 265 267 270 273 275 277 278 275 272 270 272 272 269 266 263 259 256 255 257 261 265 267
355 330 297 278 272 267 262 257 253 249 245 242 241 241 243 243 242 241 242 243 242 241 244 249 253 253 249 244 243 247 250 251 252 253 253 253 252 251 251 252 253 254 253 254 256 258 259 260 261 260 262 264 264 265 266 265 263 261 263 265 266 266 264 262 262 266 271 274 273 273 271 270 270 270 269 265 261 259 257 255 253 255 257 259 262
8 360 343 306 281 274 268 261 255 252 248 246 244 242 243 244 244 242 243 245 245 243 244 248 253 257 256 248 244 247 250 251 253 254 255 254 253 253 253 252 252 253 254 255 257 259 261 260 260 259 260 262 263 264 264 263 263 262 263 265 267 266 262 259 258 262 270 273 269 266 268 270 271 269 265 262 258 254 253 254 253 252 254 255 257
14 11 6 351 307 279 270 264 260 254 251 250 249 247 246 245 244 243 245 247 247 246 247 249 248 249 251 248 244 245 248 249 253 255 255 254 254 254 253 252 251 251 252 253 255 258 261 261 260 259 260 262 263 264 264 263 263 264 264 265 265 263 258 254 252 259 271 273 267 264 264 267 269 269 268 265 262 257 255 256 255 253 253 254 254
15 13 9 4 348 310 282 271 267 261 256 253 252 253 251 248 248 248 246 246 247 250 253 254 248 243 244 245 245 249 252 251 254 257 257 255 254 254 255 254 252 251 251 252 254 256 260 261 261 260 261 263 264 266 267 266 265 264 264 264 264 262 259 256 253 260 271 271 265 263 263 265 268 270 270 267 263 259 256 257 257 255 253 252 252
15 13 10 6 359 344 318 290 276 268 262 257 256 255 255 255 254 250 246 247 254 257 256 254 248 242 242 245 245 251 256 255 254 255 255 255 253 253 255 256 255 253 251 253 257 259 259 259 261 261 261 262 264 267 270 268 265 264 263 264 265 263 261 260 258 261 267 266 263 262 263 265 267 268 269 265 260 257 254 255 256 254 252 251 250
18 15 12 7 3 355 344 324 300 282 270 264 261 258 257 256 250 243 243 249 257 257 253 251 248 246 246 248 248 250 255 256 255 254 258 262 262 259 259 260 261 258 254 254 259 260 254 254 258 260 260 260 261 264 267 267 264 263 262 262 262 261 259 257 258 260 260 260 261 262 262 265 268 271 272 268 263 260 256 253 252 251 250 251 250
18 16 13 9 5 358 352 345 331 312 293 280 272 267 263 254 245 243 247 249 252 253 251 249 247 247 249 250 248 250 255 260 261 261 263 264 262 260 260 260 260 260 260 260 261 258 250 249 253 256 258 259 258 259 262 262 260 260 261 260 259 258 256 255 258 259 258 257 260 261 263 267 271 272 272 269 266 265 262 258 254 251 251 252 252
11 11 9 7 4 359 355 352 347 336 321 305 291 283 276 261 253 256 256 254 255 257 255 252 249 249 250 251 251 253 259 265 269 269 267 264 262 258 253 252 254 257 260 260 259 256 251 250 253 254 256 257 258 258 259 259 258 258 259 261 260 257 253 252 253 254 255 256 258 261 264 269 270 268 267 267 266 267 266 262 257 254 253 254 255
4 5 5 5 3 359 354 351 351 350 340 325 310 296 291 282 270 267 266 262 262 261 257 254 254 253 251 249 249 253 259 263 266 266 265 265 262 249 239 241 247 251 251 251 253 251 249 252 255 255 255 256 256 257 256 256 259 261 262 264 262 257 250 245 243 247 252 253 254 259 264 268 268 265 265 267 268 268 268 265 262 260 258 256 255
0 3 4 3 2 358 352 347 346 349 347 338 323 306 299 297 281 274 274 272 267 265 260 256 255 257 254 246 241 243 246 250 249 246 250 254 244 225 224 231 239 242 244 247 249 248 247 250 252 251 252 253 254 254 253 255 260 262 263 263 260 253 244 238 239 245 249 249 251 257 260 262 263 263 266 268 269 269 269 269 267 265 264 262 260
359 1 2 1 0 358 353 347 340 339 341 338 329 315 305 297 281 278 283 279 272 269 266 259 250 248 248 239 231 234 237 236 232 230 236 238 224 215 220 228 236 240 242 245 246 247 248 249 248 247 247 248 249 248 248 251 254 255 255 256 252 245 238 234 237 241 243 245 250 254 256 257 259 262 267 269 269 268 270 273 273 272 270 270 269
358 358 359 358 358 357 354 348 341 335 331 329 326 316 305 293 277 271 277 275 269 269 269 254 224 222 230 224 224 231 234 235 233 228 231 234 229 224 225 230 236 239 241 244 246 248 250 249 246 244 243 243 243 242 244 246 244 241 242 243 237 232 230 230 233 236 240 245 248 251 255 257 259 264 268 270 270 271 273 275 275 275 274 272 272
356 354 354 353 353 355 354 350 344 335 327 324 320 307 294 284 265 251 254 258 258 259 253 219 197 205 214 214 221 228 233 242 249 244 240 240 236 231 229 231 235 238 241 245 247 248 247 244 241 238 237 238 239 237 236 235 232 230 230 229 227 226 227 231 236 240 243 247 248 251 256 258 261 265 267 270 272 275 276 276 275 275 273 272 272
352 349 348 348 350 352 353 351 348 342 332 328 320 295 276 269 253 238 238 244 246 243 231 205 197 205 207 209 216 217 225 247 257 248 239 232 229 229 229 231 233 235 238 239 238 240 239 234 230 229 230 229 227 226 225 224 222 220 219 221 225 229 231 236 243 247 248 251 254 257 261 263 264 266 268 272 274 274 274 275 275 275 276 277 277
349 345 343 345 348 352 352 351 350 348 338 330 324 298 272 261 248 234 230 234 239 239 228 208 198 199 202 203 202 202 215 238 249 246 236 228 233 231 231 235 231 223 223 222 221 223 224 219 217 218 218 216 212 213 218 220 221 222 222 227 232 237 243 249 253 255 257 261 264 266 267 268 267 269 271 271 272 272 273 273 273 273 274 276 279
347 344 344 346 347 349 351 349 349 350 341 332 327 307 280 267 250 234 226 228 236 241 235 217 200 196 198 198 194 200 212 227 242 254 266 279 267 237 225 231 224 214 214 212 209 208 205 203 205 207 207 211 216 220 222 225 230 232 233 240 247 251 256 259 258 259 263 267 270 272 271 270 269 268 268 268 271 273 271 270 271 271 271 273 277
347 346 349 352 349 347 347 346 347 348 343 332 321 302 287 271 249 235 233 236 240 241 238 227 209 197 194 190 188 198 213 225 237 241 247 283 291 258 228 223 215 212 212 203 194 186 173 167 174 182 195 234 254 240 226 223 229 232 232 240 249 254 257 258 260 263 267 270 272 274 274 272 268 265 264 266 269 267 263 265 269 273 275 278 279
344 347 349 353 352 347 344 345 347 347 345 336 316 299 293 270 246 240 247 250 249 243 236 227 212 198 192 186 183 195 212 223 229 227 233 257 269 269 257 240 222 207 194 174 158 142 122 103 91 334 286 287 282 270 253 237 234 239 243 248 253 257 259 262 265 268 271 273 273 273 273 270 265 262 260 257 256 256 260 267 271 273 274 276 277
339 343 346 351 354 350 346 347 349 350 349 343 324 295 272 259 253 249 247 249 251 244 235 222 207 197 193 188 183 189 201 207 210 214 225 231 236 257 270 266 258 226 161 145 136 123 86 1 330 313 302 291 284 282 276 261 253 255 258 260 261 263 266 269 272 274 274 274 271 268 265 262 259 256 249 242 246 253 260 265 268 271 274 276 278
332 337 341 346 352 355 351 347 348 351 352 351 343 321 287 293 301 262 253 251 245 239 236 225 208 199 196 191 184 184 189 191 194 206 221 226 227 233 236 235 227 198 165 155 174 321 331 327 319 311 303 294 287 280 271 265 265 267 267 268 269 271 273 275 277 276 273 267 261 256 253 250 248 246 244 243 248 255 260 265 270 275 278 280 281
325 331 336 339 344 352 353 347 346 352 354 355 352 341 323 314 315 265 255 251 238 231 235 230 217 209 202 191 180 173 172 178 189 207 222 224 217 217 226 232 219 192 180 231 293 316 323 321 318 312 304 293 281 271 265 266 270 273 274 276 277 278 277 276 273 268 259 249 245 243 241 241 243 247 252 256 260 264 268 272 275 277 278 279 280
322 325 332 335 335 341 349 349 347 350 354 354 353 348 334 316 305 290 272 261 243 230 233 228 219 217 208 187 168 158 156 167 189 212 224 218 204 210 226 240 238 233 256 279 298 313 316 318 319 315 306 295 283 275 273 276 280 283 284 285 285 280 273 267 262 256 239 222 224 230 235 240 246 251 259 265 268 271 273 274 276 278 279 279 278
318 318 325 331 330 331 340 347 348 347 350 353 352 350 340 316 302 300 301 290 266 243 239 225 213 215 206 180 158 151 155 169 205 236 230 200 190 210 237 252 258 267 280 289 297 306 311 317 320 315 305 297 290 286 286 288 291 291 289 289 287 276 263 259 263 259 236 221 225 229 235 242 249 254 260 263 264 267 271 276 281 281 278 275 272
312 313 317 323 325 325 330 340 347 345 345 351 353 351 345 323 302 298 303 303 296 290 279 246 222 217 206 186 166 156 155 120 63 67 162 177 193 228 262 275 276 281 292 298 302 306 308 311 312 309 302 293 289 291 293 294 293 290 289 291 292 278 262 262 269 263 248 244 244 244 247 250 250 249 248 244 246 258 267 274 280 277 272 276 277
307 309 312 315 318 320 323 333 345 345 342 348 352 351 353 352 330 304 298 307 314 309 290 262 231 218 212 199 180 153 106 65 55 61 92 174 239 267 281 285 287 292 296 299 302 304 306 308 309 305 294 285 284 290 296 295 292 291 295 301 303 292 272 265 264 258 254 254 256 257 255 249 240 234 231 231 239 253 259 263 278 287 282 281 280
303 305 310 310 313 317 320 329 341 342 341 344 344 343 355 6 1 323 282 295 311 309 290 267 232 209 206 203 185 138 90 69 56 41 27 360 318 310 309 303 300 300 302 305 307 305 304 306 307 304 293 282 282 291 296 294 293 301 310 311 306 291 272 265 263 258 256 255 254 251 243 232 227 227 227 229 237 240 232 209 185 331 308 280 260
302 303 306 307 310 314 317 325 336 338 337 339 338 332 342 360 7 2 308 292 304 314 309 280 243 215 209 207 187 140 102 75 52 34 20 2 344 340 340 332 322 317 317 318 316 313 308 305 302 298 290 281 283 294 299 290 289 303 313 311 304 288 274 278 276 267 263 261 253 242 232 226 225 226 227 227 227 217 193 157 141 104 39 15 268
306 307 308 305 306 311 313 320 333 337 333 333 337 332 327 341 357 5 0 344 333 335 333 292 248 227 223 220 201 154 126 104 67 30 14 3 354 349 347 344 338 333 331 328 323 319 315 307 298 289 281 279 283 288 276 263 270 294 306 301 290 267 267 282 285 276 272 268 256 240 229 226 227 230 230 225 213 196 177 166 159 138 102 73 55
308 312 313 306 302 305 309 313 323 331 329 328 334 335 326 326 340 349 354 358 2 3 357 329 263 239 232 223 212 181 145 130 114 71 25 11 7 2 353 346 343 341 339 337 335 333 326 315 304 288 275 271 263 227 211 225 245 323 338 324 282 249 256 267 274 275 275 272 262 246 236 234 234 234 230 217 201 186 172 166 161 143 117 84 65
306 311 315 312 304 301 304 307 314 323 325 323 329 336 332 325 331 336 336 344 358 5 4 355 320 252 231 216 208 209 198 149 123 104 70 31 13 3 352 347 351 350 342 338 340 343 339 330 321 305 279 247 212 200 209 229 254 314 337 336 318 293 279 274 273 271 270 270 265 252 243 240 238 234 225 207 193 185 176 169 164 150 123 88 64
Height
1516 1518 1519 1520 1522 1523 1525 1526 1528 1529 1530 1531 1533 1535 1537 1538 1540 1542 1544 1545 1546 1548 1549 1550 1551 1553 1555 1556 1558 1560 1562 1563 1564 1566 1567 1569 1570 1572 1573 1574 1575 1576 1577 1578 1580 1581 1582 1583 1584 1585 1585 1585 1586 1586 1586 1586 1586 1587 1587 1586 1586 1586 1586 1586 1586 1585 1585 1584 1583 1582 1581 1580 1580 1580 1579 1578 1578 1578 1577 1576 1575 1574 1574 1573 1572
1515 1517 1518 1519 1520 1522 1523 1524 1525 1526 1527 1529 1531 1533 1535 1537 1539 1541 1543 1544 1545 1547 1548 1549 1550 1552 1554 1556 1558 1559 1561 1562 1564 1565 1567 1568 1569 1570 1572 1573 1574 1575 1576 1577 1579 1580 1581 1582 1583 1584 1584 1585 1585 1585 1585 1586 1586 1586 1586 1586 1585 1585 1585 1585 1585 1585 1584 1583 1583 1582 1581 1580 1580 1579 1578 1578 1578 1577 1577 1576 1575 1574 1574 1573 1572
1513 1515 1516 1517 1519 1520 1521 1522 1523 1524 1526 1529 1531 1532 1534 1536 1537 1539 1541 1543 1545 1546 1547 1548 1550 1552 1554 1556 1558 1559 1560 1562 1563 1565 1566 1567 1568 1569 1571 1572 1573 1574 1575 1576 1578 1579 1580 1581 1582 1583 1584 1584 1584 1585 1585 1585 1585 1585 1585 1585 1585 1584 1584 1584 1584 1584 1583 1583 1582 1582 1581 1580 1580 1579 1578 1578 1577 1577 1576 1575 1575 1574 1574 1573 1572
1511 1513 1515 1516 1517 1518 1519 1520 1521 1523 1525 1527 1529 1531 1533 1534 1536 1538 1540 1542 1544 1545 1546 1548 1550 1551 1553 1555 1557 1558 1559 1561 1562 1563 1564 1565 1567 1568 1569 1570 1572 1573 1574 1575 1577 1578 1579 1579 1580 1581 1582 1583 1583 1584 1584 1584 1585 1585 1584 1584 1584 1583 1583 1583 1583 1583 1582 1582 1582 1581 1581 1580 1579 1579 1578 1577 1577 1576 1576 1575 1574 1574 1573 1573 1572
1510 1511 1513 1514 1515 1516 1517 1518 1520 1521 1522 1525 1527 1529 1531 1533 1534 1536 1539 1540 1542 1544 1546 1547 1549 1550 1552 1554 1555 1556 1557 1558 1560 1561 1562 1564 1565 1566 1568 1569 1570 1572 1573 1574 1575 1576 1577 1578 1579 1580 1580 1581 1582 1582 1583 1583 1584 1584 1584 1583 1583 1583 1583 1583 1582 1582 1582 1581 1581 1581 1580 1580 1579 1579 1578 1577 1577 1576 1576 1575 1575 1574 1573 1573 1572
1508 1509 1511 1512 1513 1514 1516 1517 1518 1519 1520 1523 1525 1527 1529 1531 1533 1535 1537 1539 1541 1543 1545 1546 1547 1549 1550 1551 1553 1554 1555 1556 1557 1559 1561 1562 1564 1565 1567 1568 1569 1571 1572 1573 1574 1575 1576 1576 1577 1578 1578 1579 1580 1581 1581 1582 1582 1583 1583 1583 1582 1582 1582 1582 1582 1581 1581 1581 1580 1580 1580 1579 1579 1578 1578 1577 1577 1576 1576 1575 1575 1574 1573 1573 1572
1506 1508 1509 1510 1512 1513 1514 1515 1516 1517 1518 1521 1523 1526 1528 1530 1532 1534 1536 1538 1539 1542 1544 1545 1546 1547 1548 1550 1551 1552 1553 1554 1556 1558 1560 1562 1563 1564 1566 1567 1568 1570 1571 1572 1573 1574 1574 1575 1575 1576 1576 1577 1578 1579 1580 1580 1581 1582 1582 1582 1581 1581 1581 1581 1581 1581 1580 1580 1580 1580 1579 1579 1578 1578 1578 1577 1576 1576 1576 1576 1575 1574 1573 1572 1572
1503 1505 1507 1508 1510 1511 1512 1514 1515 1516 1519 1522 1524 1525 1527 1529 1531 1532 1535 1536 1538 1540 1542 1543 1545 1546 1547 1549 1550 1551 1552 1554 1556 1557 1559 1561 1562 1563 1564 1566 1567 1568 1569 1570 1571 1572 1573 1573 1574 1574 1575 1575 1576 1577 1578 1579 1580 1580 1580 1580 1580 1580 1580 1580 1580 1580 1580 1579 1579 1579 1579 1578 1578 1578 1578 1577 1577 1576 1576 1575 1574 1574 1573 1572 1572
1500 1502 1503 1505 1507 1508 1510 1511 1512 1514 1518 1522 1524 1525 1526 1528 1529 1531 1533 1535 1536 1538 1540 1542 1543 1545 1546 1547 1548 1550 1551 1553 1555 1556 1558 1559 1560 1562 1563 1564 1565 1567 1568 1569 1570 1571 1571 1572 1572 1572 1573 1574 1574 1575 1576 1577 1578 1578 1579 1579 1579 1579 1579 1579 1579 1579 1579 1579 1579 1578 1578 1578 1577 1577 1577 1577 1577 1576 1575 1575 1574 1573 1572 1572 1571
1498 1500 1501 1503 1505 1507 1508 1509 1511 1513 1515 1518 1520 1523 1524 1526 1528 1529 1531 1533 1534 1536 1538 1540 1541 1543 1544 1545 1547 1548 1550 1552 1553 1555 1556 1558 1559 1560 1561 1562 1564 1565 1566 1567 1568 1569 1570 1570 1570 1571 1571 1572 1573 1573 1575 1575 1576 1577 1577 1577 1577 1578 1578 1578 1578 1578 1578 1578 1578 1577 1577 1577 1576 1576 1576 1576 1576 1576 1575 1574 1573 1572 1571 1571 1571
1496 1498 1501 1503 1505 1506 1508 1509 1510 1512 1514 1516 1518 1520 1522 1523 1525 1526 1528 1531 1532 1534 1535 1537 1539 1541 1542 1544 1545 1547 1548 1550 1551 1553 1554 1556 1557 1558 1559 1561 1562 1563 1564 1565 1567 1567 1568 1568 1569 1569 1569 1570 1571 1572 1573 1574 1574 1575 1575 1576 1576 1576 1576 1576 1576 1576 1577 1577 1577 1576 1576 1576 1575 1575 1575 1575 1575 1575 1574 1573 1572 1572 1571 1571 1571
1495 1498 1500 1503 1505 1506 1507 1508 1509 1511 1513 1514 1515 1517 1519 1520 1522 1524 1526 1528 1530 1532 1533 1535 1537 1538 1540 1542 1543 1545 1547 1548 1549 1551 1552 1554 1555 1556 1557 1559 1560 1561 1562 1564 1565 1565 1566 1566 1567 1567 1568 1568 1569 1570 1571 1572 1572 1573 1573 1574 1574 1575 1575 1575 1575 1575 1575 1575 1575 1575 1575 1574 1574 1574 1574 1574 1574 1574 1573 1572 1572 1571 1571 1570 1570
1495 1497 1499 1501 1503 1504 1506 1507 1508 1509 1511 1512 1513 1514 1516 1518 1520 1521 1523 1525 1527 1529 1531 1532 1534 1536 1537 1539 1541 1543 1544 1546 1547 1549 1551 1552 1553 1555 1556 1557 1558 1559 1560 1561 1563 1564 1564 1565 1565 1566 1566 1567 1568 1569 1569 1570 1571 1571 1572 1572 1573 1573 1573 1573 1574 1573 1573 1573 1573 1573 1573 1573 1573 1573 1573 1572 1572 1572 1572 1572 1571 1571 1570 1570 1569
1495 1496 1498 1500 1501 1503 1504 1506 1507 1508 1509 1512 1513 1514 1515 1516 1517 1519 1521 1523 1525 1527 1529 1530 1532 1533 1535 1537 1539 1541 1542 1543 1545 1546 1548 1550 1551 1553 1554 1555 1555 1556 1558 1559 1561 1562 1563 1563 1563 1564 1565 1566 1567 1567 1568 1568 1569 1569 1570 1570 1571 1571 1571 1572 1572 1572 1572 1572 1572 1572 1571 1571 1572 1572 1571 1571 1571 1571 1571 1571 1570 1570 1569 1569 1569
1495 1496 1497 1499 1500 1502 1503 1504 1505 1506 1508 1511 1513 1514 1514 1515 1516 1517 1519 1521 1523 1525 1527 1529 1530 1532 1534 1535 1537 1539 1540 1541 1543 1544 1546 1548 1549 1551 1552 1553 1554 1555 1556 1557 1559 1560 1561 1561 1562 1563 1564 1564 1565 1566 1566 1567 1567 1568 1568 1569 1569 1570 1570 1570 1570 1570 1570 1570 1570 1570 1570 1570 1570 1570 1570 1570 1570 1570 1570 1570 1569 1569 1569 1568 1568
1495 1496 1497 1498 1499 1500 1502 1503 1504 1504 1506 1508 1511 1512 1513 1514 1516 1517 1519 1521 1523 1524 1526 1528 1530 1531 1533 1534 1536 1537 1539 1540 1541 1542 1544 1545 1547 1548 1550 1551 1552 1553 1555 1556 1557 1559 1559 1560 1560 1561 1562 1563 1563 1564 1564 1565 1566 1566 1567 1567 1568 1568 1568 1568 1569 1569 1569 1569 1569 1569 1569 1569 1569 1569 1569 1569 1569 1569 1569 1568 1568 1568 1568 1567 1567
1495 1496 1496 1497 1498 1499 1500 1501 1502 1503 1504 1506 1508 1510 1512 1513 1515 1516 1518 1520 1522 1523 1525 1527 1529 1530 1532 1533 1535 1536 1537 1538 1539 1540 1542 1543 1545 1546 1548 1549 1550 1551 1553 1554 1556 1557 1558 1558 1559 1560 1560 1561 1562 1562 1563 1563 1564 1565 1565 1566 1566 1567 1567 1567 1567 1567 1568 1568 1568 1567 1567 1567 1567 1567 1567 1567 1567 1567 1567 1567 1567 1567 1567 1567 1566
1496 1496 1496 1496 1497 1498 1499 1500 1501 1501 1503 1504 1506 1508 1510 1512 1513 1515 1517 1519 1520 1522 1524 1526 1528 1529 1530 1532 1534 1535 1536 1537 1538 1539 1540 1542 1543 1544 1545 1547 1548 1550 1551 1552 1554 1555 1556 1556 1557 1558 1559 1559 1560 1560 1561 1562 1562 1563 1563 1564 1564 1565 1565 1565 1566 1566 1566 1566 1566 1566 1566 1566 1566 1566 1566 1566 1566 1566 1566 1566 1566 1566 1566 1566 1566
1497 1496 1496 1496 1496 1497 1498 1499 1500 1501 1502 1503 1505 1507 1508 1510 1512 1513 1515 1517 1519 1521 1523 1525 1526 1527 1529 1530 1532 1534 1535 1536 1537 1538 1539 1540 1541 1542 1543 1544 1546 1548 1549 1550 1552 1553 1554 1554 1555 1556 1557 1557 1558 1559 1559 1560 1560 1561 1562 1562 1563 1563 1563 1564 1564 1565 1565 1565 1565 1565 1565 1565 1565 1564 1564 1564 1564 1564 1565 1565 1565 1565 1565 1565 1565
1497 1496 1496 1495 1496 1497 1497 1498 1499 1500 1501 1503 1505 1506 1507 1509 1510 1511 1513 1514 1516 1519 1521 1522 1524 1525 1527 1529 1530 1532 1533 1534 1535 1537 1537 1538 1539 1540 1541 1543 1544 1546 1547 1549 1550 1551 1552 1553 1554 1554 1555 1556 1557 1557 1558 1558 1559 1559 1560 1561 1561 1562 1562 1562 1563 1563 1563 1564 1564 1564 1564 1564 1563 1563 1563 1563 1563 1563 1563 1563 1563 1564 1564 1564 1564
1497 1496 1495 1495 1495 1496 1497 1498 1499 1500 1501 1502 1504 1505 1506 1507 1508 1509 1511 1512 1514 1516 1518 1521 1523 1524 1525 1526 1528 1530 1531 1533 1534 1535 1535 1536 1538 1539 1540 1541 1543 1544 1546 1547 1548 1549 1550 1551 1552 1553 1553 1554 1555 1556 1556 1557 1557 1558 1558 1559 1560 1560 1560 1561 1561 1562 1562 1562 1562 1562 1562 1562 1562 1562 1561 1561 1561 1561 1561 1561 1562 1562 1562 1563 1563
1496 1495 1494 1494 1495 1496 1497 1498 1498 1499 1500 1501 1502 1503 1504 1505 1506 1509 1511 1512 1514 1516 1518 1521 1523 1524 1524 1525 1526 1528 1529 1530 1531 1532 1533 1535 1536 1537 1538 1539 1541 1542 1544 1545 1546 1547 1548 1549 1550 1551 1551 1552 1553 1554 1554 1554 1555 1556 1557 1557 1558 1558 1559 1559 1559 1560 1560 1560 1560 1560 1560 1560 1560 1560 1559 1559 1559 1559 1559 1559 1560 1560 1561 1561 1562
1496 1495 1493 1493 1494 1495 1496 1496 1497 1498 1498 1499 1501 1502 1502 1503 1505 1507 1509 1511 1513 1515 1516 1519 1520 1521 1521 1523 1525 1526 1526 1528 1529 1530 1531 1532 1534 1535 1536 1537 1538 1540 1541 1543 1544 1545 1546 1547 1547 1548 1549 1550 1550 1551 1552 1552 1553 1554 1554 1555 1556 1556 1557 1557 1557 1558 1558 1558 1558 1558 1558 1558 1557 1557 1557 1557 1557 1557 1557 1557 1557 1558 1558 1559 1560
1496 1495 1494 1493 1494 1494 1494 1495 1496 1496 1497 1498 1499 1500 1501 1502 1503 1504 1507 1509 1512 1513 1514 1516 1515 1516 1518 1521 1522 1522 1523 1525 1526 1528 1529 1530 1531 1533 1534 1535 1536 1538 1539 1540 1542 1543 1543 1544 1545 1546 1546 1547 1548 1549 1549 1550 1551 1551 1552 1553 1553 1554 1554 1555 1555 1556 1556 1556 1555 1555 1556 1556 1555 1555 1555 1554 1554 1554 1554 1554 1555 1555 1556 1557 1557
1497 1496 1495 1494 1494 1494 1494 1495 1495 1496 1497 1498 1498 1499 1500 1501 1502 1504 1506 1508 1511 1511 1512 1512 1513 1515 1518 1519 1519 1520 1521 1523 1524 1525 1526 1527 1528 1530 1531 1532 1533 1535 1536 1537 1538 1540 1541 1541 1542 1543 1544 1544 1545 1546 1546 1547 1548 1549 1549 1550 1550 1551 1551 1552 1552 1553 1554 1554 1553 1553 1553 1553 1553 1553 1552 1552 1552 1552 1552 1552 1553 1553 1553 1554 1554
1499 1497 1496 1495 1494 1495 1495 1495 1496 1496 1497 1498 1498 1499 1499 1500 1503 1505 1507 1510 1511 1509 1508 1510 1513 1516 1517 1516 1516 1517 1519 1520 1521 1521 1521 1522 1525 1527 1528 1529 1531 1532 1533 1534 1535 1537 1539 1539 1539 1540 1541 1541 1542 1543 1544 1544 1545 1546 1546 1547 1547 1548 1549 1549 1550 1550 1551 1551 1551 1551 1551 1551 1551 1550 1550 1550 1550 1550 1550 1550 1550 1550 1550 1551 1551
1502 1500 1498 1496 1495 1495 1495 1495 1495 1496 1497 1497 1498 1498 1499 1501 1503 1505 1508 1510 1507 1504 1504 1508 1511 1514 1513 1512 1513 1515 1515 1516 1517 1518 1519 1520 1523 1525 1527 1529 1529 1530 1530 1531 1532 1534 1536 1536 1536 1537 1537 1538 1539 1540 1541 1541 1542 1543 1544 1544 1544 1544 1545 1546 1548 1549 1549 1549 1549 1549 1549 1548 1548 1548 1548 1548 1548 1548 1548 1548 1548 1548 1548 1548 1548
1503 1501 1499 1497 1496 1495 1495 1495 1495 1495 1496 1497 1497 1498 1498 1500 1502 1504 1505 1504 1501 1500 1503 1505 1507 1508 1508 1509 1511 1512 1513 1514 1515 1516 1518 1518 1519 1522 1525 1527 1526 1526 1527 1528 1529 1530 1531 1532 1533 1533 1534 1535 1536 1536 1537 1538 1538 1539 1540 1540 1540 1540 1541 1542 1545 1546 1547 1547 1546 1546 1546 1546 1546 1546 1546 1546 1545 1545 1546 1546 1546 1546 1546 1546 1546
1504 1502 1500 1498 1497 1496 1495 1495 1495 1495 1496 1496 1496 1496 1497 1500 1501 1501 1500 1499 1499 1501 1503 1503 1504 1504 1505 1506 1507 1509 1510 1512 1512 1513 1514 1513 1514 1518 1521 1521 1522 1523 1524 1526 1526 1527 1528 1529 1530 1530 1532 1532 1533 1533 1534 1534 1535 1536 1536 1537 1538 1537 1537 1539 1541 1543 1544 1544 1544 1544 1544 1544 1544 1544 1544 1543 1543 1544 1544 1544 1544 1544 1544 1544 1544
1506 1504 1502 1500 1498 1496 1495 1494 1494 1494 1495 1495 1495 1495 1495 1498 1500 1498 1497 1498 1498 1499 1500 1501 1502 1503 1503 1503 1504 1506 1508 1509 1510 1510 1510 1510 1511 1513 1514 1516 1519 1520 1521 1522 1523 1524 1525 1526 1527 1528 1529 1529 1530 1530 1531 1532 1532 1533 1534 1534 1535 1534 1534 1535 1537 1539 1541 1541 1542 1542 1542 1542 1542 1542 1542 1541 1541 1542 1542 1542 1542 1542 1542 1542 1542
1508 1506 1503 1501 1498 1496 1495 1494 1493 1493 1493 1493 1494 1494 1494 1496 1497 1495 1495 1496 1496 1496 1497 1500 1501 1501 1501 1502 1502 1503 1505 1506 1507 1507 1507 1508 1509 1509 1511 1513 1515 1516 1517 1518 1519 1520 1521 1523 1524 1525 1526 1526 1527 1528 1529 1530 1530 1531 1531 1531 1532 1532 1533 1534 1535 1536 1538 1539 1539 1540 1540 1539 1540 1540 1540 1539 1540 1540 1540 1540 1540 1540 1540 1540 1540
1509 1507 1504 1501 1499 1497 1495 1493 1493 1492 1492 1492 1492 1492 1493 1494 1494 1493 1493 1494 1495 1494 1496 1499 1499 1499 1500 1501 1502 1502 1502 1503 1504 1505 1505 1506 1507 1508 1509 1511 1512 1513 1514 1515 1516 1517 1518 1520 1521 1522 1523 1523 1524 1525 1527 1528 1528 1528 1528 1529 1529 1530 1532 1533 1533 1534 1535 1536 1536 1537 1537 1537 1538 1537 1537 1538 1538 1538 1538 1538 1538 1538 1538 1538 1538
1510 1508 1505 1503 1500 1498 1495 1494 1492 1492 1491 1491 1490 1490 1491 1492 1492 1491 1491 1492 1493 1494 1496 1498 1498 1497 1499 1501 1501 1500 1500 1501 1503 1503 1504 1504 1505 1506 1507 1509 1510 1511 1511 1512 1513 1514 1516 1517 1518 1519 1520 1521 1522 1523 1524 1525 1526 1526 1526 1527 1528 1529 1530 1531 1531 1531 1532 1533 1534 1535 1535 1536 1536 1536 1535 1536 1536 1536 1536 1536 1536 1536 1536 1536 1536
1510 1509 1507 1504 1502 1499 1496 1494 1492 1491 1491 1490 1489 1489 1489 1490 1490 1490 1489 1490 1492 1493 1495 1497 1496 1496 1498 1500 1500 1499 1499 1501 1502 1504 1504 1503 1503 1504 1505 1506 1507 1508 1509 1510 1511 1513 1514 1515 1516 1516 1517 1518 1519 1521 1522 1523 1523 1523 1524 1525 1526 1527 1528 1528 1529 1529 1530 1531 1531 1532 1533 1534 1534 1534 1534 1534 1534 1535 1535 1535 1535 1535 1534 1534 1534
1510 1509 1508 1506 1503 1499 1496 1493 1491 1490 1490 1489 1488 1487 1487 1488 1489 1488 1488 1488 1490 1491 1493 1494 1494 1495 1496 1497 1498 1499 1498 1500 1503 1505 1505 1504 1503 1503 1503 1503 1504 1505 1506 1508 1510 1511 1512 1513 1513 1514 1515 1516 1517 1519 1520 1520 1521 1521 1522 1523 1524 1525 1526 1526 1526 1527 1528 1529 1530 1530 1531 1532 1532 1532 1532 1532 1532 1533 1533 1533 1533 1533 1533 1533 1532
1511 1509 1508 1507 1503 1500 1497 1494 1491 1490 1488 1487 1486 1485 1486 1487 1487 1487 1487 1487 1488 1489 1491 1492 1492 1492 1493 1494 1496 1497 1498 1499 1501 1504 1504 1502 1502 1501 1501 1502 1502 1503 1504 1506 1508 1509 1510 1510 1511 1512 1513 1515 1516 1517 1518 1519 1519 1520 1521 1522 1523 1523 1524 1524 1525 1525 1526 1527 1528 1528 1529 1529 1530 1530 1530 1530 1530 1531 1531 1531 1531 1531 1531 1531 1531
1513 1511 1509 1507 1504 1501 1498 1494 1492 1489 1488 1487 1485 1484 1485 1486 1487 1487 1486 1486 1487 1488 1489 1490 1490 1490 1491 1492 1494 1496 1497 1498 1499 1500 1500 1500 1500 1501 1500 1501 1501 1502 1503 1504 1505 1507 1508 1509 1510 1511 1512 1513 1515 1516 1517 1518 1519 1520 1520 1521 1522 1522 1523 1523 1523 1524 1524 1525 1525 1526 1526 1527 1527 1527 1528 1528 1528 1529 1529 1529 1529 1529 1529 1529 1529
1514 1511 1508 1506 1503 1500 1498 1495 1491 1489 1488 1486 1485 1485 1484 1485 1486 1487 1487 1487 1487 1487 1488 1489 1489 1489 1489 1490 1492 1494 1495 1496 1497 1497 1498 1498 1499 1500 1500 1501 1501 1502 1502 1503 1504 1505 1506 1508 1509 1511 1512 1512 1514 1516 1517 1518 1519 1520 1520 1520 1521 1521 1522 1522 1522 1523 1523 1523 1523 1523 1523 1524 1524 1524 1525 1526 1526 1527 1527 1527 1527 1527 1526 1526 1526
1513 1510 1507 1504 1502 1499 1497 1494 1491 1489 1487 1486 1486 1485 1484 1485 1485 1487 1489 1489 1488 1488 1489 1489 1490 1489 1489 1489 1490 1492 1493 1494 1495 1495 1496 1497 1498 1499 1500 1501 1501 1501 1502 1503 1504 1505 1506 1508 1509 1510 1511 1512 1514 1515 1516 1518 1519 1519 1519 1520 1520 1520 1520 1520 1521 1521 1521 1521 1520 1520 1520 1521 1521 1522 1523 1524 1524 1525 1525 1525 1525 1524 1524 1524 1523
1511 1509 1506 1503 1501 1498 1496 1493 1491 1489 1487 1486 1486 1485 1485 1485 1485 1487 1488 1488 1488 1489 1489 1489 1489 1489 1488 1488 1489 1490 1492 1492 1493 1494 1496 1497 1497 1498 1499 1500 1501 1501 1502 1503 1504 1506 1507 1508 1509 1510 1511 1512 1513 1514 1515 1517 1518 1518 1518 1518 1518 1518 1518 1518 1518 1518 1517 1517 1517 1517 1517 1518 1519 1520 1521 1522 1522 1523 1522 1522 1522 1522 1521 1521 1521
1509 1508 1505 1503 1501 1498 1496 1494 1492 1490 1488 1486 1486 1486 1485 1485 1485 1486 1487 1487 1487 1488 1488 1488 1488 1488 1487 1487 1487 1489 1490 1491 1493 1494 1495 1496 1497 1498 1499 1500 1501 1502 1503 1504 1505 1506 1507 1508 1509 1510 1511 1511 1512 1513 1514 1515 1516 1516 1516 1516 1516 1515 1515 1514 1514 1514 1514 1513 1513 1514 1514 1515 1516 1517 1518 1519 1520 1520 1520 1520 1519 1519 1518 1518 1518
1508 1507 1505 1502 1500 1498 1496 1494 1492 1490 1488 1487 1487 1486 1486 1485 1485 1485 1485 1485 1485 1485 1486 1486 1487 1487 1487 1487 1486 1487 1489 1491 1492 1493 1494 1495 1496 1497 1498 1499 1500 1501 1502 1503 1504 1505 1506 1507 1507 1508 1509 1510 1511 1512 1513 1514 1514 1514 1514 1514 1513 1512 1512 1512 1511 1511 1511 1511 1511 1511 1512 1513 1514 1515 1516 1517 1517 1517 1517 1517 1517 1516 1516 1515 1515
1506 1505 1504 1502 1500 1498 1496 1494 1492 1491 1489 1488 1487 1486 1486 1486 1485 1484 1484 1484 1484 1484 1484 1485 1486 1486 1486 1486 1486 1487 1488 1489 1491 1492 1493 1494 1495 1497 1498 1499 1501 1502 1502 1503 1503 1504 1504 1505 1506 1507 1508 1509 1510 1511 1512 1512 1512 1512 1512 1512 1511 1511 1510 1510 1510 1510 1509 1509 1510 1510 1511 1512 1512 1513 1514 1514 1515 1515 1515 1515 1515 1514 1514 1513 1513
1504 1503 1502 1501 1499 1497 1496 1494 1493 1491 1490 1488 1487 1486 1485 1485 1485 1484 1483 1483 1483 1483 1483 1484 1484 1485 1485 1486 1486 1486 1487 1488 1489 1491 1492 1493 1494 1496 1497 1498 1500 1501 1502 1502 1502 1502 1503 1504 1504 1505 1506 1507 1509 1510 1510 1511 1511 1511 1510 1510 1510 1509 1509 1509 1509 1509 1509 1509 1509 1510 1510 1511 1511 1512 1512 1513 1513 1513 1513 1513 1513 1512 1512 1511 1511
1502 1501 1500 1500 1498 1496 1495 1494 1492 1491 1489 1488 1487 1485 1484 1484 1484 1483 1483 1482 1482 1482 1483 1483 1483 1484 1484 1485 1485 1485 1486 1487 1488 1489 1490 1491 1493 1494 1496 1497 1498 1499 1500 1501 1501 1502 1502 1503 1503 1504 1505 1506 1507 1508 1509 1509 1509 1509 1509 1508 1508 1508 1508 1508 1509 1509 1509 1509 1509 1509 1510 1510 1510 1511 1511 1512 1512 1512 1512 1512 1511 1511 1510 1510 1510
1500 1499 1498 1498 1496 1495 1495 1494 1492 1491 1489 1488 1486 1485 1483 1483 1483 1482 1482 1482 1481 1481 1482 1482 1482 1483 1484 1484 1484 1484 1484 1485 1486 1488 1489 1491 1492 1493 1494 1495 1497 1498 1499 1500 1500 1501 1501 1502 1502 1503 1503 1504 1505 1506 1506 1507 1507 1507 1507 1507 1507 1507 1507 1508 1508 1509 1509 1509 1509 1509 1509 1510 1510 1510 1511 1511 1511 1511 1511 1510 1510 1509 1509 1509 1508
1498 1497 1497 1496 1495 1494 1493 1492 1492 1490 1489 1487 1486 1485 1483 1482 1481 1481 1481 1481 1480 1480 1481 1482 1482 1482 1483 1484 1484 1483 1483 1484 1485 1487 1489 1490 1491 1492 1493 1494 1495 1497 1498 1499 1499 1500 1500 1500 1501 1501 1502 1502 1503 1503 1504 1504 1505 1505 1505 1506 1506 1507 1507 1508 1508 1509 1509 1509 1510 1510 1509 1510 1510 1510 1510 1510 1510 1510 1510 1509 1509 1508 1508 1508 1507
1496 1495 1495 1494 1493 1492 1491 1491 1490 1490 1488 1487 1486 1485 1483 1482 1480 1480 1480 1479 1479 1480 1480 1481 1481 1481 1482 1483 1484 1483 1482 1483 1485 1486 1488 1489 1490 1491 1492 1493 1494 1496 1497 1497 1498 1498 1499 1499 1499 1499 1500 1500 1501 1501 1502 1503 1503 1504 1504 1505 1505 1506 1507 1508 1508 1509 1509 1510 1510 1510 1510 1510 1510 1510 1510 1510 1509 1509 1509 1508 1508 1508 1507 1507 1507
1494 1493 1493 1492 1491 1490 1489 1489 1489 1488 1487 1486 1485 1484 1483 1481 1480 1479 1479 1478 1478 1479 1479 1479 1480 1480 1481 1482 1483 1482 1481 1482 1483 1485 1487 1488 1489 1490 1491 1492 1494 1495 1495 1496 1497 1497 1497 1498 1498 1498 1498 1499 1499 1500 1501 1501 1502 1502 1503 1504 1504 1506 1507 1508 1508 1509 1509 1510 1510 1510 1510 1510 1510 1510 1509 1509 1509 1508 1508 1508 1508 1507 1507 1507 1507
1492 1491 1491 1490 1490 1489 1487 1487 1487 1486 1485 1485 1484 1483 1482 1480 1480 1479 1479 1478 1478 1478 1478 1478 1478 1479 1480 1480 1481 1481 1481 1481 1482 1483 1485 1487 1488 1489 1490 1491 1493 1494 1495 1495 1496 1496 1497 1497 1497 1497 1497 1498 1499 1499 1500 1500 1501 1501 1502 1503 1504 1505 1506 1507 1508 1509 1509 1509 1510 1510 1510 1510 1509 1509 1509 1509 1508 1508 1508 1508 1508 1507 1507 1507 1506
1490 1489 1489 1488 1487 1486 1485 1485 1484 1484 1483 1483 1482 1481 1480 1479 1478 1478 1478 1478 1477 1477 1477 1478 1478 1478 1478 1478 1479 1479 1479 1480 1480 1481 1483 1485 1487 1488 1489 1490 1492 1493 1494 1495 1495 1496 1496 1497 1497 1497 1497 1497 1498 1499 1500 1500 1500 1500 1501 1502 1503 1504 1505 1506 1507 1508 1508 1509 1509 1509 1509 1509 1509 1509 1509 1508 1508 1508 1508 1508 1508 1507 1507 1507 1506